Regional Weather Roundup
Issued by NWS

Home | Current Version | Previous Version | Graphics & Text | Print | Product List | Glossary Off
Versions: 1 2 3 4 5 6 7 8 9 10 11 12 13 14 15 16 17 18 19 20 21 22 23 24 25 26 27 28 29 30 31 32 33 34 35 36 37 38 39 40 41 42 43 44 45 46 47 48 49 50

361
ASUS43 KMKX 180710
RWRWI

WISCONSIN REGIONAL WEATHER ROUNDUP
NATIONAL WEATHER SERVICE MILWAUKEE/SULLIVAN WI
100 AM CST MON DEC 18 2017

NOTE: "FAIR" INDICATES FEW OR NO CLOUDS BELOW 12,000 FEET WITH NO
SIGNIFICANT WEATHER AND/OR OBSTRUCTIONS TO VISIBILITY.

WIZ001-002-006>008-014>016-023>028-180800-
NORTHWEST WISCONSIN

CITY           SKY/WX    TMP DP  RH WIND       PRES   REMARKS
SUPERIOR ARPT  CLOUDY    26  24  91 W7        29.89F WCI  18
ASHLAND        CLOUDY    27  23  85 SW10      29.88F WCI  17
HAYWARD        CLOUDY    27  24  89 SW5       29.87F FOG     WCI  22
SIREN          CLOUDY    26  24  93 SW5       29.89F FOG     WCI  20
CUMBERLAND     CLOUDY    27  25  93 SW7       29.88F FOG     WCI  19
RICE LAKE      CLOUDY    27  26  99 CALM      29.90F FOG
CHETEK         CLOUDY    26  26 100 S6        29.89F WCI  19
LADYSMITH      CLOUDY    28  27  96 S6        29.89F FOG     WCI  21
EAU CLAIRE     CLOUDY    27  25  92 SW7       29.90F FOG     WCI  19
MENOMONIE      CLOUDY    27  26  97 SW6       29.91F FOG     WCI  20
NEW RICHMOND   CLOUDY    25  25  97 S6        29.90F FOG     WCI  18
OSCEOLA        CLOUDY    26  26 100 S6        29.94S FOG     WCI  20
$$

WIZ003>005-009-010-017-018-180800-
NORTH CENTRAL WISCONSIN

CITY           SKY/WX    TMP DP  RH WIND       PRES   REMARKS
MANITOWISH WTR CLOUDY    24  24 100 W8        29.84F FOG     WCI  15
ARBOR VITAE    CLOUDY    27  26  96 W5        29.84F FOG     WCI  21
WOODRUFF       CLOUDY    27  26  96 W5        29.84F FOG     WCI  21
RHINELANDER    CLOUDY    26  26 100 W5        29.85F FOG     WCI  20
EAGLE RIVER    CLOUDY    26  26 100 SW5       29.84F FOG     WCI  20
LAND O LAKES   CLOUDY    26  25  99 W3        29.85F FOG
PHILLIPS       CLOUDY    25  25 100 SW3       29.85F FOG
TOMAHAWK       CLOUDY    25  24  96 CALM      29.87F FOG
MEDFORD        FOG       25  24  96 SW6       29.87F VSB 3/4 WCI  18
MERRILL        CLOUDY    26  26 100 SW3       29.88F FOG
$$

WIZ029-030-035-036-043>047-180800-
CENTRAL WISCONSIN

CITY           SKY/WX    TMP DP  RH WIND       PRES   REMARKS
WAUSAU         CLOUDY    26  26 100 W6        29.87F FOG     WCI  19
MOSINEE        CLOUDY    28  28 100 W6        29.90F FOG     WCI  22
MARSHFIELD     CLOUDY    27  27 100 W6        29.88F FOG     WCI  20
STEVENS POINT  CLOUDY    27  27 100 CALM      29.90F FOG
WAUPACA        CLOUDY    30  28  91 CALM      29.92F FOG
WAUTOMA        CLOUDY    29  27  92 CALM      29.93F FOG
WISC RAPIDS    CLOUDY    29  27  92 W3        29.92F FOG
CAMP DOUGLAS   CLOUDY    30  28  93 W3        29.92S
$$

WIZ011>013-019>022-031-037>040-048>050-180800-
NORTHEAST WISCONSIN

CITY           SKY/WX    TMP DP  RH WIND       PRES   REMARKS
ANTIGO         CLOUDY    25  25 100 W6        29.86F FOG     WCI  18
SHAWANO        CLOUDY    30  28  94 CALM      29.91F FOG
OCONTO         CLOUDY    28  27  99 CALM      29.92F VSB 1
STURGEON BAY   CLOUDY    29  28  96 W7        29.91F FOG     WCI  22
GREEN BAY      FOG       29  27  92 W3        29.92F VSB 1/2
MANITOWOC      CLOUDY    30  28  92 W3        29.93F FOG
APPLETON       CLOUDY    30  28  93 W5        29.90F FOG     WCI  25
CLINTONVILLE   FOG       28  27  93 CALM      29.91F VSB 1/2
OSHKOSH        CLOUDY    30  28  92 CALM      29.92S FOG
$$

WIZ032>034-041-042-053>061-180800-
SOUTHWEST WISCONSIN

CITY           SKY/WX    TMP DP  RH WIND       PRES   REMARKS
LA CROSSE      CLOUDY    31  28  89 W3        29.94F FOG
SPARTA         CLOUDY    29  28  96 CALM      29.94S FOG
VIROQUA        CLOUDY    30  30 100 CALM      29.91S
BOSCOBEL       CLOUDY    33  30  88 CALM      29.94S
PRAIRIE DU CHI CLOUDY    32  29  88 CALM      29.94F FOG
PLATTEVILLE    CLOUDY    33  33 100 CALM      29.92F VSB 1/4
$$

WIZ056-057-062-063-064-067-068-180800-
SOUTH CENTRAL WISCONSIN

CITY           SKY/WX    TMP DP  RH WIND       PRES   REMARKS
REEDSBURG      CLOUDY    31  31 100 CALM      29.92S FOG
BARABOO/DELLS  CLOUDY    31  29  94 CALM      29.91F FOG
LONE ROCK      CLOUDY    33  32  96 NW3       29.93F FOG
MINERAL POINT  LGT RAIN  34  34 100 S3        29.90F VSB 3/4
MADISON        MIX PCPN  32  32 100 CALM      29.94R VSB 3/4
MIDDLETON      CLOUDY    33  33  99 CALM      29.92F VSB 3/4
WATERTOWN      DRIZZLE   31  31 100 CALM      29.92F
MONROE         FOG       34  34 100 SW6       29.91F VSB 1/2 WCI  29
JANESVILLE     FOG       34  34 100 CALM      29.93S VSB 1
$$

WIZ051-052-058>065-066-070>072-180800-
SOUTHEAST WISCONSIN

CITY           SKY/WX    TMP DP  RH WIND       PRES   REMARKS
MILWAUKEE      DRIZZLE   35  33  92 CALM      29.93F FOG
WAUKESHA       LGT RAIN  32  30  93 CALM      29.93F VSB 1
MILWAUKEE/TIMM DRIZZLE   32  30  93 CALM      29.93F
RACINE         CLOUDY    35  33  92 CALM      29.94F FOG
BURLINGTON     FOG       46  46 100 CALM      29.93F VSB 1
KENOSHA        CLOUDY    36  33  89 CALM      29.92F FOG
FOND DU LAC    CLOUDY    31  28  89 CALM      29.92F FOG
SHEBOYGAN      CLOUDY    30  30 100 CALM      29.92F FOG
WEST BEND      MIX PCPN  32  32 100 CALM      29.92S
JUNEAU         FOG       30  30  99 CALM      29.92F VSB 3/4
$$

LSZ147-162-180800-
LAKE SUPERIOR

STATION/POSITION TIME  TEMP    WIND        PRES    WAVE
                       AIR SEA DIR/SP/G            HT/PER
                 (UTC) (F)     (DEG/KT/KT) (MB)    (FT/S)
DEVILS ISLAND    0600   27     220/ 15/ 20 1013.0F
SAXON HARBOR     0630   28                 1011.5F
$$

LMZ867-665-643>646-180800-
LAKE MICHIGAN

STATION/POSITION TIME  TEMP    WIND        PRES    WAVE
                       AIR SEA DIR/SP/G            HT/PER
                 (UTC) (F)     (DEG/KT/KT) (MB)    (FT/S)
NORTHPORT PIER   0640   31      CALM  /  5 1012.9F
KEWAUNEE LAKESHO 0642          290/  2/  6 1012.5F
SHEBOYGAN LAKESH 0700   31     280/  4/  4 1013.9F
PORT WASHINGTON  0630   33     220/  1/  3 1014.9F
MILWAUKEE LAKESH 0650   34     190/  2/  2   N/A
KENOSHA   LAKESH 0600   35      CALM  /  4 1014.6
$$

TC  - TEMPERATURE IN CELSIUS
VSB - VISIBILITY IN STATUTE MILES
WCI - WIND CHILL INDEX
HX  - HEAT INDEX





USA.gov is the U.S. government's official web portal to all federal, state and local government web resources and services.